Ypsilanti, MI

2:46 AM EDT on May 24, 2018 (GMT -0400)
Willow Run

Weather History for KYIP - November, 2012

Change the Weather History Date:

Sunday, November 18, 2012

  Actual Average Record
Temperature  
Mean Temperature 44 °F -  
Max Temperature 57 °F 47 °F 73 °F (2016)
Min Temperature 30 °F 32 °F 14 °F (2014)
Degree Days  
Heating Degree Days 22    
Moisture  
Dew Point 33 °F    
Average Humidity 79    
Maximum Humidity 93    
Minimum Humidity 38    
Precipitation  
Precipitation 0.01 in - - ()
Sea Level Pressure  
Sea Level Pressure 30.51 in    
Wind  
Wind Speed 4 mph (NE)    
Max Wind Speed 10 mph    
Max Gust Speed -    
Visibility 3 miles    
Events Fog    
Averages and records for this station are not official NWS values.
T = Trace of Precipitation, MM = Missing Value Source: NWS Daily Summary

Daily Weather History Graph

Daily Weather History Graph

Search for Another Location

Airport or City:

Astronomy

Nov. 18, 2012 Rise Set
Actual Time 7:28 AM EST 5:09 PM EST
Civil Twilight 6:58 AM EST 5:39 PM EST
Nautical Twilight 6:24 AM EST 6:14 PM EST
Astronomical Twilight 5:51 AM EST 6:47 PM EST
Moon 11:54 AM EST (11/18) 10:29 PM EST (11/18)
Length of Visible Light 10h 41m
Length of Day
9h 40m
Waxing Crescent, 30% of the Moon is Illuminated
Nov 18
Waxing Crescent
Nov 20
First Quarter
Nov 28
Full
Dec 6
Last Quarter
Dec 13
New

Hourly Weather History & Observations

Time (EST) Temp. Windchill Dew Point Humidity Pressure Visibility Wind Dir Wind Speed Gust Speed Precip Events Conditions
12:01 AM 30.2 °F - 26.6 °F 86% 30.56 in 4.0 mi Calm Calm - N/A   Haze
12:49 AM 30.2 °F 25.4 °F 26.6 °F 86% 30.55 in 2.5 mi NNE 4.6 mph - N/A   Partly Cloudy
12:53 AM 30.9 °F 25.2 °F 26.1 °F 82% 30.56 in 1.8 mi NE 5.8 mph - N/A   Haze
12:57 AM 30.2 °F 24.3 °F 26.6 °F 86% 30.54 in 0.8 mi NE 5.8 mph - N/A   Mist
1:17 AM 30.2 °F 25.4 °F 26.6 °F 86% 30.54 in 1.2 mi North 4.6 mph - N/A   Scattered Clouds
1:25 AM 30.2 °F 24.3 °F 26.6 °F 86% 30.54 in 2.0 mi NNE 5.8 mph - N/A   Mostly Cloudy
1:33 AM 32.0 °F 26.4 °F 28.4 °F 87% 30.53 in 1.2 mi NNE 5.8 mph - N/A   Mostly Cloudy
1:53 AM 33.1 °F 28.7 °F 28.9 °F 85% 30.54 in 2.0 mi NNE 4.6 mph - N/A   Overcast
2:07 AM 35.6 °F 30.7 °F 30.2 °F 81% 30.53 in 1.8 mi NE 5.8 mph - N/A   Overcast
2:35 AM 37.4 °F 32.1 °F 33.8 °F 87% 30.54 in 0.2 mi NNE 6.9 mph - N/A Fog Fog
2:42 AM 37.4 °F 32.8 °F 33.8 °F 87% 30.54 in 0.2 mi NNE 5.8 mph - N/A Fog Fog
2:53 AM 37.0 °F 32.4 °F 35.1 °F 93% 30.55 in 0.2 mi NE 5.8 mph - N/A Fog Fog
3:53 AM 39.0 °F 36.8 °F 36.0 °F 89% 30.53 in 0.2 mi NNE 3.5 mph - N/A Fog Fog
4:53 AM 39.9 °F 37.8 °F 37.0 °F 89% 30.53 in 0.2 mi NNE 3.5 mph - N/A Fog Fog
5:53 AM 42.1 °F 40.2 °F 37.9 °F 85% 30.54 in 0.2 mi ENE 3.5 mph - N/A Fog Fog
6:53 AM 42.1 °F - 39.0 °F 89% 30.55 in 0.2 mi Calm Calm - 0.01 in Fog Fog
7:53 AM 43.0 °F 39.5 °F 39.0 °F 86% 30.54 in 0.2 mi ENE 5.8 mph - N/A Fog Fog
8:32 AM 42.8 °F 38.6 °F 39.2 °F 87% 30.52 in 0.2 mi East 6.9 mph - N/A Fog Fog
8:53 AM 43.0 °F 39.5 °F 39.0 °F 86% 30.53 in 0.2 mi East 5.8 mph - N/A Fog Fog
9:00 AM 42.8 °F 39.3 °F 39.2 °F 87% 30.52 in 0.2 mi East 5.8 mph - N/A Fog Fog
9:09 AM 42.8 °F 39.3 °F 39.2 °F 87% 30.52 in 0.5 mi ENE 5.8 mph - N/A Fog Fog
9:36 AM 42.8 °F 39.3 °F 39.2 °F 87% 30.52 in 1.0 mi ENE 5.8 mph - N/A   Overcast
9:53 AM 43.0 °F 40.3 °F 39.9 °F 89% 30.54 in 1.2 mi NNE 4.6 mph - N/A   Mostly Cloudy
10:14 AM 44.6 °F 42.2 °F 39.2 °F 81% 30.52 in 2.5 mi ENE 4.6 mph - N/A   Mostly Cloudy
10:21 AM 44.6 °F 42.2 °F 39.2 °F 81% 30.52 in 2.5 mi NNE 4.6 mph - N/A   Scattered Clouds
10:37 AM 44.6 °F 42.2 °F 39.2 °F 81% 30.52 in 3.0 mi NNE 4.6 mph - N/A   Mostly Cloudy
10:49 AM 44.6 °F 42.2 °F 39.2 °F 81% 30.52 in 3.0 mi NE 4.6 mph - N/A   Scattered Clouds
10:53 AM 45.0 °F 43.5 °F 41.0 °F 86% 30.53 in 3.0 mi ENE 3.5 mph - N/A   Partly Cloudy
11:53 AM 51.1 °F - 39.9 °F 66% 30.51 in 6.0 mi ESE 4.6 mph - N/A   Haze
12:53 PM 55.0 °F - 36.0 °F 49% 30.48 in 10.0 mi East 8.1 mph - N/A   Clear
1:53 PM 55.9 °F - 34.0 °F 44% 30.46 in 10.0 mi ESE 5.8 mph - N/A   Clear
2:53 PM 57.0 °F - 32.0 °F 39% 30.44 in 10.0 mi ESE 10.4 mph - N/A   Clear
3:53 PM 55.0 °F - 30.0 °F 38% 30.44 in 10.0 mi East 9.2 mph - N/A   Clear
4:53 PM 50.0 °F - 30.9 °F 48% 30.45 in 10.0 mi East 8.1 mph - N/A   Clear
5:53 PM 45.0 °F 41.2 °F 30.9 °F 58% 30.46 in 10.0 mi SSE 6.9 mph - N/A   Clear
6:53 PM 44.1 °F - 35.1 °F 71% 30.47 in 10.0 mi Calm Calm - N/A   Clear
7:53 PM 37.9 °F - 33.1 °F 83% 30.47 in 6.0 mi Calm Calm - N/A   Haze
8:53 PM 33.1 °F - 28.0 °F 82% 30.47 in 6.0 mi Calm Calm - N/A   Haze
9:53 PM 32.0 °F - 27.0 °F 82% 30.46 in 6.0 mi Calm Calm - N/A   Haze
10:53 PM 32.0 °F 28.7 °F 27.0 °F 82% 30.45 in 5.0 mi North 3.5 mph - N/A   Haze
11:31 PM 30.2 °F 26.7 °F 26.6 °F 86% 30.43 in 2.5 mi NE 3.5 mph - N/A   Clear
11:38 PM 30.2 °F 26.7 °F 26.6 °F 86% 30.43 in 4.0 mi NE 3.5 mph - N/A   Clear
11:53 PM 30.9 °F 27.5 °F 27.0 °F 85% 30.43 in 3.0 mi NNE 3.5 mph - N/A   Clear